World > North America > United States > Texas > Pirtle  

Pirtle, TX Hourly Weather Updates

Feedback E-mail the Weather

Quick Clicks

Pirtle, TX Weather Maps

°F °C°F °C
Pirtle Weather Map
UTC Time: 4/16/2024, 23:18
Your Time:

Pirtle, TX Regional Weather

Expires:202404170000;;866178
ASUS44 KFWD 162315
RWRTX 
NORTH TEXAS HOURLY WEATHER ROUNDUP
NATIONAL WEATHER SERVICE FORT WORTH TX
600 PM CDT TUE APR 16 2024

NOTE: "FAIR" INDICATES FEW OR NO CLOUDS BELOW 12,000 FEET WITH NO
SIGNIFICANT WEATHER AND/OR OBSTRUCTIONS TO VISIBILITY.


TXZ095>097-106>112-122>126-135>138-148>153-164>167-170000-
EAST TEXAS
  
CITY           SKY/WX    TMP DP  RH WIND       PRES   REMARKS
PARIS          CLOUDY    75  74  96 S14G22    29.80S                  
SULPHUR SPRNGS PTSUNNY   76  73  88 S13       29.82S                  
MOUNT PLEASANT CLOUDY    73 N/A N/A S7        29.82S HAZE             
GILMER         FAIR      75  69  81 S3        29.82F                  
MINEOLA        CLOUDY    75  72  88 S5        29.82F                  
TYLER          CLOUDY    75  71  87 S3        29.82S                  
LONGVIEW       CLOUDY    80  69  69 S10       29.82S                  
MARSHALL       FAIR      79  73  81 S10       29.81S                  
ATHENS         CLOUDY    75  72  88 CALM      29.81S                  
PALESTINE      CLOUDY    77  72  83 CALM      29.81S                  
JACKSONVILLE   FAIR      75  69  80 S9        29.86F                  
HENDERSON      CLOUDY    81  70  69 S7        29.84S                  
CENTER         FAIR      81  64  57 S13G20    29.87S                  
NACOGDOCHES    CLOUDY    79  71  76 S12       29.86S                  
LUFKIN         FAIR      79  67  66 S9G24     29.86S                  
$$

SUPPLEMENTAL OBSERVATIONS (NWS FORT WORTH AREA)
  
CITY           SKY/WX    TMP DP  RH WIND       PRES   REMARKS
CADDO GRASSLND   N/A     79  64  61 S12         N/A                   
LBJ GRASSLAND    N/A     86  43  22 N3G13       N/A                   
MCGREGOR         N/A     79  72  78 S18         N/A                   
$$

SUPPLEMENTAL OBSERVATIONS (NWS NORMAN AREA)
  
CITY           SKY/WX    TMP DP  RH WIND       PRES   REMARKS
GOODLETT         N/A     85  34  15 W9        29.76                   
ODELL            N/A     85  45  24 W7        29.77R                  
CROWELL          N/A     84  37  18 SW13      29.76S                  
KNOX CITY        N/A     85  32  15 SW10      29.77                   
SEYMOUR          N/A     83  38  20 SW7       29.76S                  
MILLERS CREEK    N/A     88  30  12 SW12        N/A                   
$$

SUPPLEMENTAL OBSERVATIONS (NWS SAN ANGELO AREA)
  
CITY           SKY/WX    TMP DP  RH WIND       PRES   REMARKS
WEINERT          N/A     85  31  14 W9        29.78S                  
HASKELL          N/A     86  24  10 SW13      29.77                   
THROCKMORTON     N/A     86  36  17 SW7       29.77                   
STAMFORD         N/A     87  34  15 W9        29.79                   
CLYDE            N/A     85  23  10 SW10      29.83F                  
HAMBY            N/A     84  23  10 SW6G18      N/A                   
IVIE RESERVOIR   N/A     90  21   8 SW9         N/A                   
COLORADO BEND    N/A     84  66  54 S8          N/A                   
$$

SUPPLEMENTAL OBSERVATIONS (NWS SHREVEPORT AREA)
  
CITY           SKY/WX    TMP DP  RH WIND       PRES   REMARKS
TEXARKANA        N/A     72  70  94 SE2         N/A                   
LINDEN           N/A     73  70  88 CALM        N/A                   
HENDERSON        N/A     79  68  69 S7          N/A                   
LUFKIN           N/A     81  68  65 MISG        N/A                   
N SABINE NF      N/A     81  66  61 MISG        N/A                   
$$

SUPPLEMENTAL OBSERVATIONS ARE A COLLECTION OF AUTOMATED INSTRUMENTS
THAT ARE MAINTAINED BY A VARIETY OF FEDERAL AND STATE AGENCIES. 
CERTAIN ELEMENTS...SUCH AS HUMIDITY VALUES AND SUSTAINED WIND 
SPEEDS...MAY BE APPROXIMATED.

  

SKY/WX - Weather  TMP - Temperature  DP - Dew Point  RH - Humidity
WIND - Wind Direction/Speed PRES - Barometric Pressure VSB - Visibility
WCI - Wind Chill Index E13G22 Wind - East Wind 13 mph/Gusts of 22 mph

Trending Headlines

Trending Entertainment Headlines

Pirtle Radar Loop

Use the map search tool if you want to place a location marker on the radar map...

Pirtle Quick Facts

National Two Day Weather Forecast


E-mail the Pirtle Weather Forecast

Voice your opinion or tell us about page issues...